Location: East Guldeford
(50.9500°N, 0.7500°E)
Time: 18:39:38
(UTC+00:00)

Cosmos 1680 Rocket - Pass Details

Date: 12 May 2021
Orbit: 759 x 782 km, 74.1° (Epoch: 15 June)

Event Time Altitude Azimuth Distance (km) Brightness Sun altitude
Rises 21:28:07 0° 336° (NNW) 3,278 8.5 -13.7°
Reaches altitude 10° 21:30:32 10° 339° (NNW) 2,347 7.3 -13.9°
Maximum altitude 21:35:52 71° 63° (ENE) 832 3.6 -14.4°
Enters shadow 21:39:16 23° 144° (SE) 1,631 4.6 -14.7°
